Regional Weather Roundup
Issued by NWS Sterling, VA

Home | Current Version | Previous Version | Text Only | Print | Product List | Glossary On
Versions: 1 2 3 4 5 6 7 8 9 10 11 12 13 14 15 16 17 18 19 20 21 22 23 24 25 26 27 28 29 30 31 32 33 34 35 36 37 38 39 40 41 42 43 44 45 46 47 48 49 50
088
ASUS41 KLWX 270911
RWRLWX

REGIONAL WEATHER ROUNDUP
NATIONAL WEATHER SERVICE BALTIMORE MD/WASHINGTON DC
500 AM EDT FRI APR 27 2018

Note: "FAIR" indicates few or no clouds below 12,000 feet
with no significant weather and/or obstructions to visibility.
 TC=TEMPERATURE CELSIUS

 * =Non NWS site. Station does not report precipitation (e.g. rain,
    snow, etc.), thunder, or fog.

DCZ001-MDZ009-015-VAZ040>042-051-053>054-271000-
WASHINGTON METRO

CITY           SKY/WX    TMP DP  RH WIND       PRES   REMARKS
WASHINGTON NAT RAIN      55  52  89 NE10      29.77F FOG
DULLES         RAIN      51  51 100 N10       29.77F FOG
ANDREWS AFB    RAIN      53  52  97 NE9       29.75F FOG
FT BELVOIR     RAIN      53  52  95 CALM      29.75F FOG
QUANTICO       HVY RAIN  55  54  96 W10       29.80R FOG
COLLEGE PARK*  CLOUDY    52  51  95 CALM      29.78F
LEESBURG*      HVY RAIN  50  50 100 N8        29.81S
MANASSAS*      HVY RAIN  52  50  93 N7        29.79F
GAITHERSBURG*  HVY RAIN  51  50  96 NE6       29.79F FOG

$$

MDZ006>007-011-014-271000-
BALTIMORE METRO

CITY           SKY/WX    TMP DP  RH WIND       PRES   REMARKS
BWI AIRPORT    RAIN      53  52  96 NE5       29.80F FOG
MD SCIENCE CTR   N/A     57  52  83 MISG      29.83R
MARTIN STATE   CLOUDY    54  54 100 CALM      29.84R
ANNAPOLIS      RAIN      56  54  93 CALM      29.79F FOG
FORT MEADE*    CLOUDY    52  50  93 NE5       29.81F

$$

MDZ012-015-019>023-271000-
MARYLAND EASTERN SHORE

CITY           SKY/WX    TMP DP  RH WIND       PRES   REMARKS
OCEAN CITY     CLOUDY    55  46  71 SE10      29.78F
SALISBURY      LGT RAIN  53  50  89 SE6       29.77R
BAY BRIDGE AP* RAIN      54  52  94 E5        29.80F FOG
CAMBRIDGE*     CLOUDY    54  52  94 NE6       29.79F

$$

MDZ017>025-271000-
SOUTHERN MARYLAND

CITY           SKY/WX    TMP DP  RH WIND       PRES   REMARKS
PATUXENT RIVER LGT RAIN  56  52  86 NE5       29.78S
ST INIGOES     NOT AVBL
LEONARDTOWN*   CLOUDY    52  52 100 CALM      29.79R

$$

MDZ003>005-271000-
NORTH CENTRAL MARYLAND

CITY           SKY/WX    TMP DP  RH WIND       PRES   REMARKS
FREDERICK*     RAIN      50  50 100 N6        29.82F
HAGERSTOWN APT LGT RAIN  51  48  89 NW6       29.81R
WESTMINSTER*   LGT RAIN  55  48  76 SE5       29.82R

$$

MDZ501>502-271000-
WESTERN MARYLAND

CITY           SKY/WX    TMP DP  RH WIND       PRES   REMARKS
OAKLAND*       MOCLDY    41  36  81 E8        29.80R
CUMBERLAND*    FAIR      50  45  81 NW5       29.86R

$$

VAZ025>031-271000-
SHENANDOAH VALLEY

CITY           SKY/WX    TMP DP  RH WIND       PRES   REMARKS
WINCHESTER*    RAIN      48  46  93 NW3       29.81S
FRONT ROYAL*   CLOUDY    48  48 100 CALM      29.79F
LURAY*         RAIN      50  50 100 NE12      29.75F
NEW MARKET*    CLOUDY    49  47  95 N13       29.74F
STAUNTON*      FAIR      49  48  95 NW6       29.77S
WAYNESBORO*    FAIR      50  50  99 NW3       29.76R

$$

WVZ021-048>050-054>055-271000-
EASTERN WEST VIRGINIA PANHANDLE

CITY           SKY/WX    TMP DP  RH WIND       PRES   REMARKS
MARTINSBURG    RAIN      51  47  86 N6        29.80F FOG
PETERSBURG*    LGT RAIN  48  45  89 N7        29.77F

$$

VAZ036>039-050-271000-
CENTRAL FOOTHILLS

CITY           SKY/WX    TMP DP  RH WIND       PRES   REMARKS
CHARLOTTESVILL CLOUDY    54  53  97 CALM      29.72F
CULPEPER*      LGT RAIN  52  49  91 N10       29.76F
ORANGE*        MOCLDY    50  50 100 CALM      29.74F
GORDONSVILLE*  CLOUDY    51  51 100 NE5       29.73F
WARRENTON*     LGT RAIN  52  49  87 N7        29.77F

$$

VAZ055>057-271000-
NORTH AND CENTRAL PIEDMONT

CITY           SKY/WX    TMP DP  RH WIND       PRES   REMARKS
FREDERICKSBRG* HVY RAIN  55  55 100 N5        29.75S
STAFFORD*      HVY RAIN  55  55 100 N6        29.81R

$$

NCZ024-NYZ072-PAZ021-071-VAZ022-071-271000-
OTHER REGIONAL OBSERVATIONS

CITY           SKY/WX    TMP DP  RH WIND       PRES   REMARKS
NEW YORK CITY  FAIR      57  41  55 NE3       29.87F
PHILADELPHIA   CLOUDY    54  46  74 NE3       29.81F
PITTSBURGH     CLOUDY    46  39  76 SE3       29.78S
ROANOKE        CLOUDY    54  53  97 CALM      29.77S
RICHMOND       CLOUDY    59  59 100 CALM      29.73F
RALEIGH        MOCLDY    58  58 100 S6        29.79S

$$

ANZ530>537-271000-
MARINE OBSERVATIONS

STATION/POSITION TIME  TEMP    WIND        PRES
                       AIR SEA DIR/SP/G
                 (UTC) (F)     (DEG/KT/KT) (MB)
THOMAS PT LIGHT  0900   53 56  110/  5/  5 1010.2R
BALT KEY BRIDGE  0848   55      60/  3/  4 1009.6R
COVE POINT       0848   54     120/  5/  5 1009.2F
LEWISETTA        0848   55 58   20/  2/  2 1008.0S
SOLOMONS ISLAND  0848   54 55   80/  4/  5 1008.0F
PINEY POINT      0842           50/  4/  6   N/A

$$





USA.gov is the U.S. government's official web portal to all federal, state and local government web resources and services.